Date String (YYYY-MM-DD hh:mm:ss) UTC,Instrument flags,Ambient pressure (hPa),Sample flow (lpm),Bypass flow (lpm),Sample temperature (°C),Ambient temperature (°C),ASC tube jacket temperature (°C),LED temperature (°C),Box temperature (°C),Sample RH (%),Span deviation,Mass concentration (μg/m³),Mass concentration (μg/m³),Mass concentration (μg/m³)
DateTimeUTC,F1_M11,P_M11,Q1_M11,Q2_M11,T1_M11,T2_M11,T3_M11,T4_M11,T5_M11,U1_M11,ZSPAN_M11,X0_M11,X2_M11,X1_M11
2022-07-13 06:00:00,,0829.1,5.01,0.00,29.7,27.3,00.0,38.4,31.4,20.3,0000.0,0012.23,0005.17,0004.48
2022-07-13 06:01:00,,0829.1,4.99,0.00,29.6,27.3,00.0,38.3,31.3,21.4,0000.0,0012.37,0005.16,0004.48
2022-07-13 06:02:00,,0829.1,5.00,0.00,29.6,27.4,00.0,38.3,31.3,21.0,0000.0,0011.65,0005.14,0004.49
2022-07-13 06:03:00,,0829.1,5.01,0.00,29.5,27.6,00.0,38.3,31.3,20.7,0000.0,0011.95,0005.15,0004.49
2022-07-13 06:04:00,,0829.1,5.00,0.00,29.5,27.7,00.0,38.3,31.3,20.5,0000.0,0012.23,0005.19,0004.51
2022-07-13 06:05:00,,0829.1,5.00,0.00,29.5,27.9,00.0,38.3,31.4,20.4,0000.0,0012.39,0005.24,0004.52
2022-07-13 06:06:00,,0829.1,5.00,0.00,29.5,28.0,00.0,38.3,31.4,20.2,0000.0,0012.41,0005.26,0004.52
2022-07-13 06:07:00,,0829.1,5.00,0.00,29.6,28.1,00.0,38.4,31.4,20.2,0000.0,0012.23,0005.31,0004.53
2022-07-13 06:08:00,,0829.1,5.01,0.00,29.6,28.2,00.0,38.4,31.5,19.9,0000.0,0011.66,0005.31,0004.52
2022-07-13 06:09:00,,0829.1,5.00,0.00,29.6,28.3,00.0,38.4,31.5,19.9,0000.0,0011.18,0005.30,0004.52
2022-07-13 06:10:00,,0829.1,5.01,0.00,29.6,28.4,00.0,38.4,31.5,19.6,0000.0,0011.00,0005.30,0004.52
2022-07-13 06:11:00,,0829.1,5.00,0.00,29.7,28.5,00.0,38.4,31.6,19.5,0000.0,0010.85,0005.30,0004.53
2022-07-13 06:12:00,,0829.1,4.99,0.00,29.7,28.6,00.0,38.4,31.6,19.6,0000.0,0010.49,0005.29,0004.54
2022-07-13 06:13:00,,0829.1,5.00,0.00,29.7,28.6,00.0,38.4,31.7,19.6,0000.0,0010.82,0005.27,0004.54
2022-07-13 06:14:00,,0829.1,5.00,0.00,29.8,28.7,00.0,38.5,31.7,19.7,0000.0,0012.22,0005.24,0004.53
2022-07-13 06:15:00,,0829.1,5.00,0.00,29.8,28.8,00.0,38.5,31.7,19.8,0000.0,0012.96,0005.24,0004.52
2022-07-13 06:16:00,,0829.1,5.00,0.00,29.8,28.8,00.0,38.5,31.7,19.7,0000.0,0013.21,0005.20,0004.52
2022-07-13 06:17:00,,0829.1,5.00,0.00,29.8,28.9,00.0,38.5,31.8,19.6,0000.0,0012.89,0005.21,0004.53
2022-07-13 06:18:00,,0829.1,5.00,0.00,29.9,28.5,00.0,38.5,31.8,19.4,0000.0,0012.73,0005.25,0004.55
2022-07-13 06:19:00,,0829.1,5.01,0.00,29.8,27.7,00.0,38.4,31.6,19.3,0000.0,0012.69,0005.24,0004.57
2022-07-13 06:20:00,,0829.0,5.01,0.00,29.8,27.5,00.0,38.4,31.5,19.0,0000.0,0012.73,0005.29,0004.58
2022-07-13 06:21:00,,0829.0,5.00,0.00,29.7,27.4,00.0,38.4,31.4,18.8,0000.0,0013.44,0005.33,0004.59
2022-07-13 06:22:00,,0829.0,5.00,0.00,29.6,27.5,00.0,38.4,31.4,18.7,0000.0,0013.53,0005.35,0004.60
2022-07-13 06:23:00,,0828.9,5.00,0.00,29.6,27.6,00.0,38.4,31.4,18.8,0000.0,0013.61,0005.40,0004.62
2022-07-13 06:24:00,,0828.9,4.99,0.00,29.6,27.8,00.0,38.4,31.4,19.0,0000.0,0013.20,0005.40,0004.64
2022-07-13 06:25:00,,0828.9,5.01,0.00,29.6,27.9,00.0,38.4,31.4,18.8,0000.0,0012.34,0005.42,0004.66
2022-07-13 06:26:00,,0828.9,4.99,0.00,29.6,28.0,00.0,38.4,31.4,18.4,0000.0,0011.64,0005.44,0004.67
2022-07-13 06:27:00,,0828.9,5.00,0.00,29.6,28.1,00.0,38.4,31.4,18.4,0000.0,0011.63,0005.47,0004.67
2022-07-13 06:28:00,,0828.9,5.00,0.00,29.6,28.2,00.0,38.4,31.5,18.2,0000.0,0011.70,0005.47,0004.67
2022-07-13 06:29:00,,0828.9,5.00,0.00,29.6,28.3,00.0,38.4,31.5,18.1,0000.0,0011.66,0005.45,0004.66
2022-07-13 06:30:00,,0828.9,5.00,0.00,29.7,28.4,00.0,38.4,31.5,18.1,0000.0,0012.22,0005.42,0004.65
2022-07-13 06:31:00,,0828.8,5.00,0.00,29.7,28.5,00.0,38.4,31.6,18.1,0000.0,0012.72,0005.37,0004.65
2022-07-13 06:32:00,,0828.9,5.01,0.00,29.7,28.5,00.0,38.4,31.6,18.1,0000.0,0012.01,0005.33,0004.65
2022-07-13 06:33:00,,0828.9,5.00,0.00,29.7,28.6,00.0,38.4,31.6,18.3,0000.0,0012.37,0005.35,0004.65
2022-07-13 06:34:00,,0828.9,4.99,0.00,29.8,28.6,00.0,38.5,31.7,18.2,0000.0,0013.06,0005.34,0004.65
2022-07-13 06:35:00,,0828.9,5.00,0.00,29.8,28.7,00.0,38.5,31.7,18.1,0000.0,0013.04,0005.32,0004.64
2022-07-13 06:36:00,,0828.9,5.00,0.00,29.8,28.7,00.0,38.5,31.7,18.0,0000.0,0011.90,0005.28,0004.64
2022-07-13 06:37:00,,0828.9,5.00,0.00,29.8,28.8,00.0,38.5,31.8,17.9,0000.0,0011.90,0005.25,0004.64
2022-07-13 06:38:00,,0829.0,5.00,0.00,29.8,28.8,00.0,38.5,31.7,17.9,0000.0,0012.11,0005.24,0004.65
2022-07-13 06:39:00,,0828.9,5.01,0.00,29.9,28.3,00.0,38.5,31.7,17.8,0000.0,0012.15,0005.28,0004.66
2022-07-13 06:40:00,,0829.0,5.00,0.00,29.8,27.5,00.0,38.5,31.6,17.9,0000.0,0012.16,0005.26,0004.68
2022-07-13 06:41:00,,0829.0,5.00,0.00,29.8,27.3,00.0,38.4,31.5,18.0,0000.0,0011.75,0005.27,0004.69
2022-07-13 06:42:00,,0829.0,5.00,0.00,29.7,27.3,00.0,38.4,31.4,18.1,0000.0,0011.01,0005.30,0004.69
2022-07-13 06:43:00,,0829.0,5.00,0.00,29.6,27.4,00.0,38.4,31.3,18.1,0000.0,0011.24,0005.31,0004.70
2022-07-13 06:44:00,,0829.0,5.00,0.00,29.6,27.5,00.0,38.4,31.3,18.1,0000.0,0011.21,0005.29,0004.71
2022-07-13 06:45:00,,0829.0,5.01,0.00,29.6,27.7,00.0,38.4,31.4,19.2,0000.0,0010.55,0005.27,0004.71
2022-07-13 06:46:00,,0829.1,5.00,0.00,29.6,27.8,00.0,38.4,31.4,19.5,0000.0,0010.46,0005.28,0004.72
2022-07-13 06:47:00,,0829.1,5.01,0.00,29.6,28.0,00.0,38.4,31.4,19.1,0000.0,0010.89,0005.36,0004.74
2022-07-13 06:48:00,,0829.1,5.00,0.00,29.6,28.1,00.0,38.4,31.5,19.5,0000.0,0010.92,0005.43,0004.75
2022-07-13 06:49:00,,0829.1,5.00,0.00,29.6,28.2,00.0,38.4,31.5,19.1,0000.0,0010.86,0005.47,0004.77
2022-07-13 06:50:00,,0829.1,5.00,0.00,29.6,28.3,00.0,38.4,31.5,18.7,0000.0,0010.90,0005.45,0004.78
2022-07-13 06:51:00,,0829.0,5.00,0.00,29.7,28.4,00.0,38.4,31.6,18.7,0000.0,0011.64,0005.43,0004.79
2022-07-13 06:52:00,,0829.0,5.00,0.00,29.7,28.5,00.0,38.4,31.6,18.6,0000.0,0011.68,0005.44,0004.78
2022-07-13 06:53:00,,0829.0,5.00,0.00,29.7,28.6,00.0,38.4,31.6,18.5,0000.0,0011.96,0005.49,0004.81
2022-07-13 06:54:00,,0829.0,5.00,0.00,29.7,28.6,00.0,38.5,31.7,18.5,0000.0,0012.17,0005.52,0004.82
2022-07-13 06:55:00,,0828.9,5.00,0.00,29.8,28.7,00.0,38.5,31.7,18.6,0000.0,0011.77,0005.54,0004.83
2022-07-13 06:56:00,,0829.0,5.00,0.00,29.8,28.7,00.0,38.5,31.7,18.5,0000.0,0012.09,0005.57,0004.84
2022-07-13 06:57:00,,0829.0,5.01,0.00,29.8,28.7,00.0,38.5,31.7,18.6,0000.0,0011.96,0005.58,0004.85
2022-07-13 06:58:00,,0829.0,5.00,0.00,29.8,28.8,00.0,38.5,31.7,18.6,0000.0,0011.60,0005.56,0004.85
2022-07-13 06:59:00,,0829.0,4.99,0.00,29.8,28.8,00.0,38.5,31.8,18.2,0000.0,0011.42,0005.53,0004.86
